TimeMDT,TemperatureF,Dew PointF,Humidity,Sea Level PressureIn,VisibilityMPH,Wind Direction,Wind SpeedMPH,Gust SpeedMPH,PrecipitationIn,Events,Conditions,WindDirDegrees,DateUTC
12:53 AM,73.0,51.1,46,29.86,10.0,NNW,8.1,-,N/A,,Clear,330,2013-08-20 06:53:00
1:53 AM,73.0,48.0,41,29.84,10.0,Calm,Calm,-,N/A,,Clear,0,2013-08-20 07:53:00
2:53 AM,69.1,48.9,49,29.84,10.0,WSW,4.6,-,N/A,,Clear,250,2013-08-20 08:53:00
3:53 AM,66.9,51.1,57,29.83,10.0,West,5.8,-,N/A,,Clear,260,2013-08-20 09:53:00
4:53 AM,69.1,52.0,54,29.83,10.0,West,10.4,-,N/A,,Clear,280,2013-08-20 10:53:00
5:53 AM,70.0,54.0,57,29.85,10.0,NW,8.1,-,N/A,,Clear,310,2013-08-20 11:53:00
6:53 AM,68.0,54.0,61,29.88,10.0,West,4.6,-,N/A,,Clear,270,2013-08-20 12:53:00
7:53 AM,75.0,55.0,50,29.88,10.0,Calm,Calm,-,N/A,,Clear,0,2013-08-20 13:53:00
8:53 AM,80.1,55.9,43,29.89,10.0,NNW,4.6,-,N/A,,Clear,340,2013-08-20 14:53:00
9:53 AM,84.9,55.0,36,29.89,10.0,NNW,5.8,-,N/A,,Clear,330,2013-08-20 15:53:00
10:53 AM,87.1,54.0,32,29.88,10.0,Calm,Calm,-,N/A,,Clear,0,2013-08-20 16:53:00
11:53 AM,91.9,54.0,27,29.86,10.0,Variable,5.8,-,N/A,,Clear,0,2013-08-20 17:53:00
12:53 PM,93.9,52.0,24,29.84,10.0,SE,9.2,-,N/A,,Clear,140,2013-08-20 18:53:00
1:53 PM,95.0,46.0,19,29.83,10.0,SSE,8.1,-,N/A,,Clear,160,2013-08-20 19:53:00
2:53 PM,97.0,46.0,18,29.81,10.0,SSE,10.4,-,N/A,,Clear,150,2013-08-20 20:53:00
3:53 PM,98.1,45.0,16,29.78,10.0,South,13.8,17.3,N/A,,Clear,180,2013-08-20 21:53:00
4:53 PM,98.1,46.0,17,29.77,10.0,SE,13.8,29.9,N/A,,Partly Cloudy,140,2013-08-20 22:53:00
5:53 PM,96.1,43.0,16,29.77,10.0,SE,12.7,-,N/A,,Clear,140,2013-08-20 23:53:00
6:02 PM,96.8,42.8,16,29.95,10.0,SE,11.5,-,N/A,Thunderstorm,Clear,140,2013-08-21 00:02:00
6:17 PM,96.8,42.8,16,29.95,10.0,SE,9.2,-,N/A,,Clear,140,2013-08-21 00:17:00
6:53 PM,93.9,44.1,18,29.78,10.0,SSE,12.7,-,N/A,,Clear,150,2013-08-21 00:53:00
7:53 PM,90.0,50.0,25,29.80,10.0,SE,12.7,-,N/A,,Clear,140,2013-08-21 01:53:00
8:53 PM,87.1,51.1,29,29.83,10.0,SE,12.7,-,N/A,,Clear,140,2013-08-21 02:53:00
9:53 PM,84.9,51.1,31,29.84,10.0,SSE,10.4,-,N/A,,Clear,150,2013-08-21 03:53:00
10:53 PM,81.0,52.0,36,29.87,10.0,South,9.2,-,N/A,,Clear,170,2013-08-21 04:53:00
11:53 PM,79.0,53.1,40,29.86,10.0,SSE,9.2,-,N/A,,Clear,160,2013-08-21 05:53:00